カタログに戻る

CZ-6A DEB

運用中PO
NORAD 61275·DEBRIS·🇨🇳 China

打ち上げ Aug 6, 2024 から Taiyuan Satellite Launch Center

Loading…

次のパス (今後24時間)

TLE

最新Source: Space-Track

元期: Sep 13, 2026, 11:30 UTC

1 61275U 24140SL  26256.47969860  .00001958  00000-0  11019-2 0  9999
2 61275  88.9605 263.5995 0133381 298.4009  60.3781 14.05740479104897

AllMySatでCZ-6A DEBをリアルタイム追跡

Download on the App Store